Weather History for Billings, MT

Change the Weather History Date:

Wednesday, February 15, 2012

  Actual Average Record
Temperature  
Mean Temperature 28 °F 30 °F  
Max Temperature 38 °F 40 °F 62 °F (2011)
Min Temperature 17 °F 21 °F -38 °F (1936)
Degree Days  
Heating Degree Days 37 35  
Month to date heating degree days 552 538  
Since 1 July heating degree days 4055 4534  
Cooling Degree Days 0 0  
Month to date cooling degree days 0 0  
Year to date cooling degree days 0 0  
Moisture  
Dew Point 15 °F    
Average Humidity 58    
Maximum Humidity 84    
Minimum Humidity 32    
Precipitation  
Precipitation 0.00 in 0.02 in 0.30 in (1986)
Month to date precipitation 0.15 0.24  
Year to date precipitation 0.76 0.72  
Snow  
Snow 0.00 in 0.20 in 3.50 in (1939)
Month to date snowfall 2.8 3.0  
Since 1 July snowfall 27.7 31.3  
Snow Depth 0.00 in    
Sea Level Pressure  
Sea Level Pressure 30.11 in    
Wind  
Wind Speed 10 mph (WSW)    
Max Wind Speed 17 mph    
Max Gust Speed 21 mph    
Visibility 10 miles    
Events      
T = Trace of Precipitation, MM = Missing Value Source: NWS Daily Summary

Daily Weather History Graph

Daily Weather History Graph

Search for Another Location

Airport:

Trip Planner

Search our weather history database for the weather conditions in past years. The results will help you decide how hot, cold, wet, or windy it might be!

Date:

Astronomy

Feb. 15, 2012 Rise Set
Actual Time 7:17 AM MST 5:40 PM MST
Civil Twilight 6:46 AM MST 6:10 PM MST
Nautical Twilight 6:11 AM MST 6:45 PM MST
Astronomical Twilight 5:37 AM MST 7:20 PM MST
Moon 2:23 AM MST (2/15) 11:27 AM MST (2/15)
Length of Visible Light 11h 24m
Length of Day
10h 23m
Last Quarter, 38% of the Moon is Illuminated
Feb 15
Last Quarter
Feb 21
New
Feb 29
First Quarter
Mar 8
Full
Mar 14
Last Quarter

Hourly Weather History & Observations

Time (MST) Temp. Windchill Dew Point Humidity Pressure Visibility Wind Dir Wind Speed Gust Speed Precip Events Conditions
12:53 AM 24.1 °F - 18.0 °F 77% 29.95 in 10.0 mi Calm Calm - N/A   Mostly Cloudy
1:53 AM 24.1 °F - 17.1 °F 75% 29.98 in 10.0 mi Calm Calm - N/A   Mostly Cloudy
2:53 AM 23.0 °F 13.1 °F 15.1 °F 72% 29.99 in 10.0 mi SW 9.2 mph - N/A   Clear
3:53 AM 21.9 °F 11.0 °F 15.1 °F 75% 30.01 in 10.0 mi SW 10.4 mph - N/A   Clear
4:53 AM 19.9 °F 9.3 °F 15.1 °F 81% 30.03 in 10.0 mi SW 9.2 mph - N/A   Clear
5:53 AM 19.9 °F 6.7 °F 14.0 °F 78% 30.05 in 10.0 mi SW 13.8 mph - N/A   Clear
6:53 AM 19.0 °F 6.8 °F 14.0 °F 81% 30.08 in 10.0 mi SW 11.5 mph - N/A   Partly Cloudy
7:53 AM 19.9 °F 7.3 °F 12.9 °F 74% 30.09 in 10.0 mi SW 12.7 mph - N/A   Partly Cloudy
8:53 AM 23.0 °F 11.1 °F 14.0 °F 68% 30.10 in 10.0 mi SW 12.7 mph - N/A   Partly Cloudy
9:53 AM 26.1 °F 15.6 °F 16.0 °F 66% 30.11 in 10.0 mi SW 11.5 mph - N/A   Partly Cloudy
10:53 AM 30.9 °F 22.8 °F 17.1 °F 57% 30.12 in 10.0 mi WSW 9.2 mph - N/A   Partly Cloudy
11:53 AM 34.0 °F 28.8 °F 16.0 °F 48% 30.11 in 10.0 mi SW 5.8 mph - N/A   Partly Cloudy
12:53 PM 36.0 °F 29.6 °F 10.0 °F 34% 30.11 in 10.0 mi NW 8.1 mph - N/A   Scattered Clouds
1:53 PM 37.0 °F 29.8 °F 10.9 °F 34% 30.10 in 10.0 mi NW 10.4 mph - N/A   Mostly Cloudy
2:53 PM 37.0 °F 29.8 °F 12.9 °F 37% 30.11 in 10.0 mi NW 10.4 mph - N/A   Mostly Cloudy
3:53 PM 37.0 °F 29.3 °F 15.1 °F 41% 30.12 in 10.0 mi West 11.5 mph - N/A   Mostly Cloudy
4:53 PM 36.0 °F 29.0 °F 15.1 °F 43% 30.14 in 10.0 mi WNW 9.2 mph - N/A   Mostly Cloudy
5:53 PM 30.0 °F 23.2 °F 14.0 °F 51% 30.17 in 10.0 mi NW 6.9 mph - N/A   Scattered Clouds
6:53 PM 28.0 °F 20.0 °F 15.1 °F 58% 30.19 in 10.0 mi NW 8.1 mph - N/A   Partly Cloudy
7:53 PM 30.0 °F 20.0 °F 15.1 °F 54% 30.19 in 10.0 mi WNW 12.7 mph - N/A   Partly Cloudy
8:53 PM 28.9 °F 19.8 °F 15.1 °F 56% 30.21 in 10.0 mi West 10.4 mph - N/A   Clear
9:53 PM 27.0 °F 16.7 °F 15.1 °F 61% 30.22 in 10.0 mi SW 11.5 mph - N/A   Clear
10:53 PM 27.0 °F 17.3 °F 15.1 °F 61% 30.21 in 10.0 mi SW 10.4 mph - N/A   Clear
11:53 PM 26.1 °F 14.0 °F 14.0 °F 60% 30.20 in 10.0 mi WSW 15.0 mph - N/A   Clear